Time,TemperatureF,DewpointF,PressureIn,WindDirection,WindDirectionDegrees,WindSpeedMPH,WindSpeedGustMPH,Humidity,HourlyPrecipIn,Conditions,Clouds,dailyrainin,SolarRadiationWatts/m^2,SoftwareType,DateUTC
2013-03-01 00:00:00,30.8,28.8,29.66,North,349,3.0,8.0,92,0.00,RA,,0.00,0.0,WeatherDisplay:10.37,2013-03-01 05:00:00,
2013-03-01 00:05:00,30.9,28.9,29.66,NNW,344,4.6,4.6,92,0.00,RA,,0.00,0.0,WeatherDisplay:10.37,2013-03-01 05:05:00,
2013-03-01 00:06:00,30.9,28.9,29.67,NNE,12,6.0,6.0,92,0.00,RA,,0.00,0.0,WeatherDisplay:10.37,2013-03-01 05:06:00,
2013-03-01 00:11:00,30.8,28.8,29.67,North,11,5.8,5.8,92,0.00,OVC,,0.00,0.0,WeatherDisplay:10.37,2013-03-01 05:11:00,
2013-03-01 00:16:00,30.8,28.8,29.67,North,5,5.8,5.8,92,0.00,OVC,,0.00,0.0,WeatherDisplay:10.37,2013-03-01 05:16:00,
2013-03-01 00:21:00,30.8,28.8,29.67,North,9,8.1,8.1,92,0.00,OVC,,0.00,0.0,WeatherDisplay:10.37,2013-03-01 05:21:00,
2013-03-01 00:26:00,30.8,28.8,29.67,North,5,5.8,5.8,92,0.00,OVC,,0.00,0.0,WeatherDisplay:10.37,2013-03-01 05:26:00,
2013-03-01 00:31:00,30.8,28.8,29.67,NNW,348,6.9,6.9,92,0.00,OVC,,0.00,0.0,WeatherDisplay:10.37,2013-03-01 05:31:00,
2013-03-01 00:36:00,30.8,28.8,29.67,North,11,10.0,0.0,92,0.00,OVC,,0.00,0.0,WeatherDisplay:10.37,2013-03-01 05:36:00,
2013-03-01 00:41:00,30.8,28.5,29.67,North,11,6.9,6.9,91,0.00,OVC,,0.00,0.0,WeatherDisplay:10.37,2013-03-01 05:41:00,
2013-03-01 00:46:00,30.8,28.5,29.68,NNE,29,8.1,8.1,91,0.00,OVC,,0.00,0.0,WeatherDisplay:10.37,2013-03-01 05:46:00,
2013-03-01 00:51:00,30.8,28.5,29.68,North,11,5.8,5.8,91,0.00,OVC,,0.00,0.0,WeatherDisplay:10.37,2013-03-01 05:51:00,
2013-03-01 00:56:00,30.8,28.8,29.68,North,11,4.6,4.6,92,0.00,OVC,,0.00,0.0,WeatherDisplay:10.37,2013-03-01 05:56:00,
2013-03-01 01:01:00,30.8,28.5,29.68,North,355,7.0,7.0,91,0.00,-SN,,0.00,0.0,WeatherDisplay:10.37,2013-03-01 06:01:00,
2013-03-01 01:06:00,30.8,28.5,29.68,North,355,9.2,9.2,91,0.00,-SN,,0.00,0.0,WeatherDisplay:10.37,2013-03-01 06:06:00,
2013-03-01 01:11:00,30.7,28.4,29.67,North,11,3.5,3.5,91,0.00,-SN,,0.00,0.0,WeatherDisplay:10.37,2013-03-01 06:11:00,
2013-03-01 01:16:00,30.7,28.4,29.67,North,5,5.8,5.8,91,0.00,-SN,,0.00,0.0,WeatherDisplay:10.37,2013-03-01 06:16:00,
2013-03-01 01:21:00,30.7,28.4,29.67,North,355,5.8,5.8,91,0.00,-SN,,0.00,0.0,WeatherDisplay:10.37,2013-03-01 06:21:00,
2013-03-01 01:26:00,30.7,28.4,29.67,NNE,15,9.0,9.0,91,0.00,-SN,,0.00,0.0,WeatherDisplay:10.37,2013-03-01 06:26:00,
2013-03-01 01:31:00,30.7,28.4,29.67,North,355,3.5,3.5,91,0.00,-SN,,0.00,0.0,WeatherDisplay:10.37,2013-03-01 06:31:00,
2013-03-01 01:36:00,30.6,28.3,29.67,NNW,346,4.0,4.0,91,0.00,-SN,,0.00,0.0,WeatherDisplay:10.37,2013-03-01 06:36:00,
2013-03-01 01:41:00,30.6,28.6,29.67,North,355,4.0,4.0,92,0.00,-SN,,0.00,0.0,WeatherDisplay:10.37,2013-03-01 06:41:00,
2013-03-01 01:46:00,30.6,28.3,29.67,North,355,6.0,6.0,91,0.00,-SN,,0.00,0.0,WeatherDisplay:10.37,2013-03-01 06:46:00,
2013-03-01 01:51:00,30.5,28.5,29.67,North,355,4.6,4.6,92,0.00,-SN,,0.00,0.0,WeatherDisplay:10.37,2013-03-01 06:51:00,
2013-03-01 01:56:00,30.5,28.5,29.67,North,355,5.8,5.8,92,0.00,-SN,,0.00,0.0,WeatherDisplay:10.37,2013-03-01 06:56:00,
2013-03-01 02:01:00,30.5,28.5,29.67,North,355,6.9,6.9,92,0.00,-SN,,0.00,0.0,WeatherDisplay:10.37,2013-03-01 07:01:00,
2013-03-01 02:06:00,30.4,28.6,29.67,North,355,6.9,6.9,93,0.00,-SN,,0.00,0.0,WeatherDisplay:10.37,2013-03-01 07:06:00,
2013-03-01 02:11:00,30.4,28.6,29.67,North,355,3.5,3.5,93,0.00,-SN,,0.00,0.0,WeatherDisplay:10.37,2013-03-01 07:11:00,
2013-03-01 02:16:00,30.4,28.6,29.67,North,355,3.0,3.0,93,0.00,-SN,,0.00,0.0,WeatherDisplay:10.37,2013-03-01 07:16:00,
2013-03-01 02:21:00,30.4,28.6,29.67,North,355,3.5,3.5,93,0.00,-SN,,0.00,0.0,WeatherDisplay:10.37,2013-03-01 07:21:00,
2013-03-01 02:26:00,30.3,28.5,29.67,North,355,4.6,4.6,93,0.00,-SN,,0.00,0.0,WeatherDisplay:10.37,2013-03-01 07:26:00,
2013-03-01 02:31:00,30.3,28.5,29.67,North,355,5.8,5.8,93,0.00,-SN,,0.00,0.0,WeatherDisplay:10.37,2013-03-01 07:31:00,
2013-03-01 02:36:00,30.3,28.5,29.67,North,355,6.9,6.9,93,0.00,-SN,,0.00,0.0,WeatherDisplay:10.37,2013-03-01 07:36:00,
2013-03-01 02:41:00,30.3,28.5,29.68,North,355,3.5,3.5,93,0.00,-SN,,0.00,0.0,WeatherDisplay:10.37,2013-03-01 07:41:00,
2013-03-01 02:46:00,30.3,28.5,29.68,North,355,3.5,3.5,93,0.00,-SN,,0.00,0.0,WeatherDisplay:10.37,2013-03-01 07:46:00,
2013-03-01 02:51:00,30.3,28.5,29.68,North,355,3.5,3.5,93,0.00,-SN,,0.00,0.0,WeatherDisplay:10.37,2013-03-01 07:51:00,
2013-03-01 02:56:00,30.3,28.8,29.68,North,355,8.1,8.1,94,0.00,-SN,,0.00,0.0,WeatherDisplay:10.37,2013-03-01 07:56:00,
2013-03-01 03:01:00,30.3,28.5,29.68,North,355,8.0,8.0,93,0.00,-SN,,0.00,0.0,WeatherDisplay:10.37,2013-03-01 08:01:00,
2013-03-01 03:06:00,30.3,28.5,29.68,North,355,3.5,3.5,93,0.00,-SN,,0.00,0.0,WeatherDisplay:10.37,2013-03-01 08:06:00,
2013-03-01 03:11:00,30.3,28.5,29.68,North,355,4.6,4.6,93,0.00,-SN,,0.00,0.0,WeatherDisplay:10.37,2013-03-01 08:11:00,
2013-03-01 03:16:00,30.3,28.5,29.68,North,355,4.6,4.6,93,0.00,-SN,,0.00,0.0,WeatherDisplay:10.37,2013-03-01 08:16:00,
2013-03-01 03:21:00,30.3,28.5,29.68,North,355,4.6,4.6,93,0.00,-SN,,0.00,0.0,WeatherDisplay:10.37,2013-03-01 08:21:00,
2013-03-01 03:26:00,30.4,28.6,29.68,North,355,5.8,5.8,93,0.00,-SN,,0.00,0.0,WeatherDisplay:10.37,2013-03-01 08:26:00,
2013-03-01 03:31:00,30.4,28.6,29.68,North,355,5.0,5.0,93,0.00,-SN,,0.00,0.0,WeatherDisplay:10.37,2013-03-01 08:31:00,
2013-03-01 03:36:00,30.4,28.6,29.69,North,355,3.5,3.5,93,0.00,-SN,,0.00,0.0,WeatherDisplay:10.37,2013-03-01 08:36:00,
2013-03-01 03:41:00,30.5,28.5,29.68,North,355,4.6,4.6,92,0.00,-SN,,0.00,0.0,WeatherDisplay:10.37,2013-03-01 08:41:00,
2013-03-01 03:46:00,30.5,28.5,29.69,North,355,5.8,5.8,92,0.00,-SN,,0.00,0.0,WeatherDisplay:10.37,2013-03-01 08:46:00,
2013-03-01 03:51:00,30.5,28.5,29.69,North,355,3.5,3.5,92,0.00,-SN,,0.00,0.0,WeatherDisplay:10.37,2013-03-01 08:51:00,
2013-03-01 03:56:00,30.5,28.5,29.69,North,355,4.0,4.0,92,0.00,-SN,,0.00,0.0,WeatherDisplay:10.37,2013-03-01 08:56:00,
2013-03-01 04:01:00,30.5,28.5,29.69,North,355,3.5,3.5,92,0.00,-SN,,0.00,0.0,WeatherDisplay:10.37,2013-03-01 09:01:00,
2013-03-01 04:06:00,30.5,28.5,29.69,North,355,4.6,4.6,92,0.00,-SN,,0.00,0.0,WeatherDisplay:10.37,2013-03-01 09:06:00,
2013-03-01 04:11:00,30.5,28.5,29.69,North,355,4.0,4.0,92,0.00,-SN,,0.00,0.0,WeatherDisplay:10.37,2013-03-01 09:11:00,
2013-03-01 04:16:00,30.4,28.4,29.69,North,355,2.3,2.3,92,0.00,-SN,,0.00,0.0,WeatherDisplay:10.37,2013-03-01 09:16:00,
2013-03-01 04:21:00,30.5,28.5,29.69,North,355,2.3,2.3,92,0.00,-SN,,0.00,0.0,WeatherDisplay:10.37,2013-03-01 09:21:00,
2013-03-01 04:26:00,30.4,28.4,29.69,North,355,3.5,3.5,92,0.00,-SN,,0.00,0.0,WeatherDisplay:10.37,2013-03-01 09:26:00,
2013-03-01 04:31:00,30.4,28.4,29.69,North,355,2.3,2.3,92,0.00,-SN,,0.00,0.0,WeatherDisplay:10.37,2013-03-01 09:31:00,
2013-03-01 04:36:00,30.4,28.4,29.69,North,355,1.2,1.2,92,0.00,-SN,,0.00,0.0,WeatherDisplay:10.37,2013-03-01 09:36:00,
2013-03-01 04:41:00,30.4,28.4,29.69,North,355,0.0,0.0,92,0.00,-SN,,0.00,0.0,WeatherDisplay:10.37,2013-03-01 09:41:00,
2013-03-01 04:46:00,30.4,28.6,29.69,North,355,1.2,0.0,93,0.00,-SN,,0.00,0.0,WeatherDisplay:10.37,2013-03-01 09:46:00,
2013-03-01 04:51:00,30.4,28.6,29.69,North,355,1.2,0.0,93,0.00,-SN,,0.00,0.0,WeatherDisplay:10.37,2013-03-01 09:51:00,
2013-03-01 04:56:00,30.4,28.6,29.69,North,355,3.5,3.5,93,0.00,-SN,,0.00,0.0,WeatherDisplay:10.37,2013-03-01 09:56:00,
2013-03-01 05:01:00,30.5,28.7,29.69,North,355,3.5,3.5,93,0.00,-SN,,0.00,0.0,WeatherDisplay:10.37,2013-03-01 10:01:00,
2013-03-01 05:06:00,30.5,28.7,29.69,North,355,4.0,4.0,93,0.00,-SN,,0.00,0.0,WeatherDisplay:10.37,2013-03-01 10:06:00,
2013-03-01 05:11:00,30.4,28.6,29.69,North,355,3.5,3.5,93,0.00,-SN,,0.00,0.0,WeatherDisplay:10.37,2013-03-01 10:11:00,
2013-03-01 05:16:00,30.4,28.6,29.70,North,355,3.5,3.5,93,0.00,-SN,,0.00,0.0,WeatherDisplay:10.37,2013-03-01 10:16:00,
2013-03-01 05:21:00,30.4,28.6,29.70,North,355,3.5,3.5,93,0.00,-SN,,0.00,0.0,WeatherDisplay:10.37,2013-03-01 10:21:00,
2013-03-01 05:26:00,30.3,28.5,29.70,North,355,3.5,3.5,93,0.00,-SN,,0.00,0.0,WeatherDisplay:10.37,2013-03-01 10:26:00,
2013-03-01 05:31:00,30.4,28.6,29.70,North,355,3.5,3.5,93,0.00,-SN,,0.00,0.0,WeatherDisplay:10.37,2013-03-01 10:31:00,
2013-03-01 05:36:00,30.4,28.6,29.70,North,355,3.5,3.5,93,0.00,-SN,,0.00,0.0,WeatherDisplay:10.37,2013-03-01 10:36:00,
2013-03-01 05:41:00,30.3,28.5,29.70,North,355,3.5,3.5,93,0.00,-SN,,0.00,0.0,WeatherDisplay:10.37,2013-03-01 10:41:00,
2013-03-01 05:46:00,30.4,28.6,29.71,North,355,2.3,2.9,93,0.00,-SN,,0.00,0.0,WeatherDisplay:10.37,2013-03-01 10:46:00,
2013-03-01 05:51:00,30.4,28.6,29.70,North,355,3.5,3.5,93,0.00,-SN,,0.00,0.0,WeatherDisplay:10.37,2013-03-01 10:51:00,
2013-03-01 05:56:00,30.4,28.6,29.70,North,355,3.5,3.5,93,0.00,-SN,,0.00,0.0,WeatherDisplay:10.37,2013-03-01 10:56:00,
2013-03-01 06:01:00,30.4,28.6,29.70,North,355,3.5,3.5,93,0.00,-SN,,0.00,0.0,WeatherDisplay:10.37,2013-03-01 11:01:00,
2013-03-01 06:06:00,30.3,28.5,29.71,North,355,3.5,3.5,93,0.00,-SN,,0.00,0.0,WeatherDisplay:10.37,2013-03-01 11:06:00,
2013-03-01 06:11:00,30.3,28.5,29.71,North,355,3.5,3.5,93,0.00,-SN,,0.00,0.0,WeatherDisplay:10.37,2013-03-01 11:11:00,
2013-03-01 06:16:00,30.3,28.8,29.71,North,355,4.6,4.6,94,0.00,-SN,,0.00,0.0,WeatherDisplay:10.37,2013-03-01 11:16:00,
2013-03-01 06:21:00,30.3,28.8,29.71,North,355,3.5,3.5,94,0.00,-SN,,0.00,0.0,WeatherDisplay:10.37,2013-03-01 11:21:00,
2013-03-01 06:26:00,30.3,28.8,29.71,North,355,6.9,6.9,94,0.00,-SN,,0.00,0.0,WeatherDisplay:10.37,2013-03-01 11:26:00,
2013-03-01 06:31:00,30.3,28.8,29.71,North,355,5.8,5.8,94,0.00,-SN,,0.00,0.0,WeatherDisplay:10.37,2013-03-01 11:31:00,
2013-03-01 06:36:00,30.3,28.8,29.71,North,355,3.5,3.5,94,0.00,-SN,,0.00,0.0,WeatherDisplay:10.37,2013-03-01 11:36:00,
2013-03-01 06:41:00,30.3,28.8,29.71,North,355,3.5,3.5,94,0.00,-SN,,0.00,0.0,WeatherDisplay:10.37,2013-03-01 11:41:00,
2013-03-01 06:46:00,30.3,28.8,29.71,North,355,3.5,3.5,94,0.00,-SN,,0.00,7.0,WeatherDisplay:10.37,2013-03-01 11:46:00,
2013-03-01 06:51:00,30.3,28.8,29.71,North,355,3.5,3.5,94,0.00,-SN,,0.00,9.0,WeatherDisplay:10.37,2013-03-01 11:51:00,
2013-03-01 06:56:00,30.4,28.9,29.72,North,355,3.5,3.5,94,0.01,-SN,,0.01,12.0,WeatherDisplay:10.37,2013-03-01 11:56:00,
2013-03-01 07:01:00,30.4,28.9,29.72,North,355,3.5,3.5,94,0.01,-SN,,0.01,18.0,WeatherDisplay:10.37,2013-03-01 12:01:00,
2013-03-01 07:06:00,30.5,29.0,29.72,North,355,4.0,4.0,94,0.01,-SN,,0.01,21.0,WeatherDisplay:10.37,2013-03-01 12:06:00,
2013-03-01 07:11:00,30.6,29.1,29.72,North,355,3.5,3.5,94,0.01,-SN,,0.01,26.0,WeatherDisplay:10.37,2013-03-01 12:11:00,
2013-03-01 07:16:00,30.6,29.3,29.72,North,355,3.5,3.5,95,0.01,-SN,,0.01,30.0,WeatherDisplay:10.37,2013-03-01 12:16:00,
2013-03-01 07:21:00,30.7,29.4,29.72,North,355,3.0,3.0,95,0.01,-SN,,0.01,39.0,WeatherDisplay:10.37,2013-03-01 12:21:00,
2013-03-01 07:26:00,30.8,29.5,29.72,North,355,4.0,4.0,95,0.01,-SN,,0.01,46.0,WeatherDisplay:10.37,2013-03-01 12:26:00,
2013-03-01 07:31:00,30.8,29.5,29.72,North,355,3.5,3.5,95,0.01,-SN,,0.01,51.0,WeatherDisplay:10.37,2013-03-01 12:31:00,
2013-03-01 07:36:00,31.0,29.7,29.72,North,355,2.3,2.3,95,0.01,-SN,,0.01,58.0,WeatherDisplay:10.37,2013-03-01 12:36:00,
2013-03-01 07:41:00,31.0,29.7,29.72,North,355,2.3,2.3,95,0.01,-SN,,0.01,63.0,WeatherDisplay:10.37,2013-03-01 12:41:00,
2013-03-01 07:46:00,31.2,29.9,29.72,North,355,3.5,3.5,95,0.01,-SN,,0.01,74.0,WeatherDisplay:10.37,2013-03-01 12:46:00,
2013-03-01 07:51:00,31.3,30.0,29.73,North,355,3.5,3.5,95,0.01,-SN,,0.01,69.0,WeatherDisplay:10.37,2013-03-01 12:51:00,
2013-03-01 07:56:00,31.4,30.1,29.73,North,355,3.5,3.5,95,0.00,-SN,,0.01,88.0,WeatherDisplay:10.37,2013-03-01 12:56:00,
2013-03-01 08:01:00,31.5,30.2,29.73,North,355,3.5,3.5,95,0.00,-SN,,0.01,113.0,WeatherDisplay:10.37,2013-03-01 13:01:00,
2013-03-01 08:06:00,31.7,30.4,29.73,North,360,4.6,4.6,95,0.00,-SN,,0.01,125.0,WeatherDisplay:10.37,2013-03-01 13:06:00,
2013-03-01 08:11:00,31.8,30.5,29.73,North,355,3.5,3.5,95,0.00,-SN,,0.01,121.0,WeatherDisplay:10.37,2013-03-01 13:11:00,
2013-03-01 08:16:00,31.9,30.6,29.73,North,350,4.0,4.0,95,0.00,-SN,,0.01,181.0,WeatherDisplay:10.37,2013-03-01 13:16:00,
2013-03-01 08:21:00,32.1,30.6,29.73,North,355,2.3,2.3,94,0.00,-SN,,0.01,144.0,WeatherDisplay:10.37,2013-03-01 13:21:00,
2013-03-01 08:26:00,32.2,30.7,29.73,North,355,5.8,5.8,94,0.00,-SN,,0.01,151.0,WeatherDisplay:10.37,2013-03-01 13:26:00,
2013-03-01 08:31:00,32.2,30.7,29.73,North,5,6.0,6.0,94,0.00,-SN,,0.01,174.0,WeatherDisplay:10.37,2013-03-01 13:31:00,
2013-03-01 08:36:00,32.1,30.3,29.73,North,360,9.2,9.2,93,0.00,-SN,,0.01,202.0,WeatherDisplay:10.37,2013-03-01 13:36:00,
2013-03-01 08:41:00,32.2,30.4,29.73,NNE,12,6.9,6.9,93,0.00,-SN,,0.01,274.0,WeatherDisplay:10.37,2013-03-01 13:41:00,
2013-03-01 08:46:00,32.5,30.4,29.73,North,351,5.8,5.8,92,0.00,-SN,,0.01,218.0,WeatherDisplay:10.37,2013-03-01 13:46:00,
2013-03-01 08:51:00,32.6,30.3,29.73,NNE,13,5.8,5.8,91,0.00,-SN,,0.01,230.0,WeatherDisplay:10.37,2013-03-01 13:51:00,
2013-03-01 08:56:00,32.7,30.4,29.73,North,5,6.9,6.9,91,0.00,-SN,,0.01,265.0,WeatherDisplay:10.37,2013-03-01 13:56:00,
2013-03-01 09:01:00,32.9,30.3,29.73,North,5,8.1,8.1,90,0.00,BKN,,0.01,283.0,WeatherDisplay:10.37,2013-03-01 14:01:00,
2013-03-01 09:06:00,33.0,30.4,29.73,North,360,4.6,4.6,90,0.00,BKN,,0.01,241.0,WeatherDisplay:10.37,2013-03-01 14:06:00,
2013-03-01 09:11:00,33.2,30.3,29.73,North,5,4.6,4.6,89,0.00,BKN,,0.01,294.0,WeatherDisplay:10.37,2013-03-01 14:11:00,
2013-03-01 09:16:00,33.5,30.6,29.73,NNW,342,5.0,5.0,89,0.00,BKN,,0.01,346.0,WeatherDisplay:10.37,2013-03-01 14:16:00,
2013-03-01 09:21:00,33.8,30.6,29.74,NE,46,7.0,7.0,88,0.00,BKN,,0.01,422.0,WeatherDisplay:10.37,2013-03-01 14:21:00,
2013-03-01 09:26:00,34.0,30.8,29.74,NNE,23,5.8,5.8,88,0.00,BKN,,0.01,459.0,WeatherDisplay:10.37,2013-03-01 14:26:00,
2013-03-01 09:31:00,34.5,31.0,29.74,North,360,6.0,6.0,87,0.00,BKN,,0.01,468.0,WeatherDisplay:10.37,2013-03-01 14:31:00,
2013-03-01 09:36:00,35.3,31.2,29.74,NNE,17,8.1,8.1,85,0.00,BKN,,0.01,617.0,WeatherDisplay:10.37,2013-03-01 14:36:00,
2013-03-01 09:41:00,35.8,31.1,29.74,NNW,346,7.0,7.0,83,0.00,BKN,,0.01,564.0,WeatherDisplay:10.37,2013-03-01 14:41:00,
2013-03-01 09:46:00,34.9,30.0,29.74,North,5,9.2,9.2,82,0.00,BKN,,0.01,207.0,WeatherDisplay:10.37,2013-03-01 14:46:00,
2013-03-01 09:51:00,34.2,29.6,29.74,NNW,343,9.2,9.2,83,0.00,BKN,,0.01,232.0,WeatherDisplay:10.37,2013-03-01 14:51:00,
2013-03-01 09:56:00,33.8,29.5,29.74,North,5,6.9,6.9,84,0.00,BKN,,0.01,529.0,WeatherDisplay:10.37,2013-03-01 14:56:00,
2013-03-01 10:01:00,34.1,29.8,29.74,NNW,333,11.5,11.5,84,0.00,BKN,,0.01,480.0,WeatherDisplay:10.37,2013-03-01 15:01:00,
2013-03-01 10:06:00,34.2,29.6,29.74,North,5,6.0,6.0,83,0.00,BKN,,0.01,441.0,WeatherDisplay:10.37,2013-03-01 15:06:00,
2013-03-01 10:11:00,34.4,30.1,29.74,NE,42,6.9,6.9,84,0.00,BKN,,0.01,271.0,WeatherDisplay:10.37,2013-03-01 15:11:00,
2013-03-01 10:16:00,35.5,30.8,29.74,NNE,17,7.0,7.0,83,0.00,BKN,,0.01,777.0,WeatherDisplay:10.37,2013-03-01 15:16:00,
2013-03-01 10:21:00,35.3,30.1,29.74,NNE,19,11.5,11.5,81,0.00,BKN,,0.01,362.0,WeatherDisplay:10.37,2013-03-01 15:21:00,
2013-03-01 10:26:00,35.0,30.1,29.74,NNE,28,11.5,11.5,82,0.00,BKN,,0.01,369.0,WeatherDisplay:10.37,2013-03-01 15:26:00,
2013-03-01 10:31:00,34.6,30.0,29.75,NNW,343,7.0,7.0,83,0.00,BKN,,0.01,424.0,WeatherDisplay:10.37,2013-03-01 15:31:00,
2013-03-01 10:36:00,34.6,29.7,29.75,NNW,338,9.2,9.2,82,0.00,BKN,,0.01,243.0,WeatherDisplay:10.37,2013-03-01 15:36:00,
2013-03-01 10:41:00,34.4,29.5,29.75,NNE,17,11.5,11.5,82,0.00,BKN,,0.01,721.0,WeatherDisplay:10.37,2013-03-01 15:41:00,
2013-03-01 10:46:00,34.5,29.6,29.75,NNE,24,9.0,9.0,82,0.00,BKN,,0.01,812.0,WeatherDisplay:10.37,2013-03-01 15:46:00,
2013-03-01 10:51:00,34.7,29.2,29.75,North,5,9.2,9.2,80,0.00,BKN,,0.01,380.0,WeatherDisplay:10.37,2013-03-01 15:51:00,
2013-03-01 10:56:00,34.8,29.3,29.75,NE,38,8.1,8.1,80,0.00,BKN,,0.01,722.0,WeatherDisplay:10.37,2013-03-01 15:56:00,
2013-03-01 11:01:00,35.2,30.0,29.75,NNE,21,6.9,6.9,81,0.00,BKN,,0.01,738.0,WeatherDisplay:10.37,2013-03-01 16:01:00,
2013-03-01 11:06:00,35.7,30.1,29.75,NNE,12,11.5,11.5,80,0.00,BKN,,0.01,721.0,WeatherDisplay:10.37,2013-03-01 16:06:00,
2013-03-01 11:11:00,36.1,30.2,29.75,North,9,9.2,9.2,79,0.00,BKN,,0.01,819.0,WeatherDisplay:10.37,2013-03-01 16:11:00,
2013-03-01 11:16:00,36.3,29.8,29.75,North,10,12.7,12.7,77,0.00,BKN,,0.01,810.0,WeatherDisplay:10.37,2013-03-01 16:16:00,
2013-03-01 11:21:00,36.2,30.0,29.75,North,355,5.8,5.8,78,0.00,BKN,,0.01,858.0,WeatherDisplay:10.37,2013-03-01 16:21:00,
2013-03-01 11:26:00,36.5,30.0,29.75,NNE,13,12.7,12.7,77,0.00,BKN,,0.01,302.0,WeatherDisplay:10.37,2013-03-01 16:26:00,
2013-03-01 11:31:00,35.9,29.4,29.75,North,9,10.4,10.4,77,0.00,BKN,,0.01,274.0,WeatherDisplay:10.37,2013-03-01 16:31:00,
2013-03-01 11:36:00,35.6,29.4,29.75,North,5,11.5,11.5,78,0.00,BKN,,0.01,352.0,WeatherDisplay:10.37,2013-03-01 16:36:00,
2013-03-01 11:41:00,36.3,29.5,29.75,North,5,8.1,8.1,76,0.00,BKN,,0.01,406.0,WeatherDisplay:10.37,2013-03-01 16:41:00,
2013-03-01 11:46:00,36.0,29.8,29.76,NNW,340,11.5,11.5,78,0.00,BKN,,0.01,376.0,WeatherDisplay:10.37,2013-03-01 16:46:00,
2013-03-01 11:51:00,35.7,29.2,29.76,NNW,333,9.2,9.2,77,0.00,BKN,,0.01,318.0,WeatherDisplay:10.37,2013-03-01 16:51:00,
2013-03-01 11:56:00,35.6,29.7,29.76,NE,34,8.1,8.1,79,0.00,BKN,,0.01,322.0,WeatherDisplay:10.37,2013-03-01 16:56:00,
2013-03-01 12:01:00,35.4,28.9,29.76,North,349,13.8,13.8,77,0.00,BKN,,0.01,350.0,WeatherDisplay:10.37,2013-03-01 17:01:00,
2013-03-01 12:06:00,35.4,28.9,29.76,NNW,328,11.5,11.5,77,0.00,BKN,,0.01,408.0,WeatherDisplay:10.37,2013-03-01 17:06:00,
2013-03-01 12:11:00,35.6,29.4,29.75,NNW,327,9.2,9.2,78,0.00,BKN,,0.01,244.0,WeatherDisplay:10.37,2013-03-01 17:11:00,
2013-03-01 12:16:00,35.6,29.1,29.76,NNE,17,9.2,9.2,77,0.00,BKN,,0.01,244.0,WeatherDisplay:10.37,2013-03-01 17:16:00,
2013-03-01 12:21:00,35.4,29.2,29.76,North,5,9.2,9.2,78,0.00,BKN,,0.01,278.0,WeatherDisplay:10.37,2013-03-01 17:21:00,
2013-03-01 12:26:00,35.3,28.8,29.76,NNW,340,10.4,10.4,77,0.00,BKN,,0.01,269.0,WeatherDisplay:10.37,2013-03-01 17:26:00,
2013-03-01 12:31:00,35.2,28.7,29.76,North,360,12.7,12.7,77,0.00,OVC,,0.01,306.0,WeatherDisplay:10.37,2013-03-01 17:31:00,
2013-03-01 12:36:00,35.2,29.0,29.76,NNW,348,8.1,8.1,78,0.00,OVC,,0.01,257.0,WeatherDisplay:10.37,2013-03-01 17:36:00,
2013-03-01 12:41:00,35.1,28.9,29.76,NNE,28,11.5,11.5,78,0.00,OVC,,0.01,218.0,WeatherDisplay:10.37,2013-03-01 17:41:00,
2013-03-01 12:46:00,35.0,28.8,29.76,NNE,28,8.1,8.1,78,0.00,OVC,,0.01,274.0,WeatherDisplay:10.37,2013-03-01 17:46:00,
2013-03-01 12:51:00,35.0,29.1,29.76,NNE,22,12.7,12.7,79,0.00,OVC,,0.01,392.0,WeatherDisplay:10.37,2013-03-01 17:51:00,
2013-03-01 12:56:00,35.2,29.0,29.76,North,355,13.8,13.8,78,0.00,OVC,,0.01,346.0,WeatherDisplay:10.37,2013-03-01 17:56:00,
2013-03-01 13:01:00,35.2,28.7,29.76,North,11,11.5,11.5,77,0.00,OVC,,0.01,338.0,WeatherDisplay:10.37,2013-03-01 18:01:00,
2013-03-01 13:06:00,35.2,29.0,29.76,North,10,8.1,8.1,78,0.00,OVC,,0.01,299.0,WeatherDisplay:10.37,2013-03-01 18:06:00,
2013-03-01 13:11:00,35.3,29.1,29.76,North,350,11.5,11.5,78,0.00,OVC,,0.01,336.0,WeatherDisplay:10.37,2013-03-01 18:11:00,
2013-03-01 13:16:00,35.5,29.3,29.76,NE,34,8.1,8.1,78,0.00,OVC,,0.01,338.0,WeatherDisplay:10.37,2013-03-01 18:16:00,
2013-03-01 13:21:00,35.7,29.2,29.76,North,9,8.1,8.1,77,0.00,OVC,,0.01,329.0,WeatherDisplay:10.37,2013-03-01 18:21:00,
2013-03-01 13:26:00,36.2,29.7,29.76,North,360,6.9,6.9,77,0.00,OVC,,0.01,612.0,WeatherDisplay:10.37,2013-03-01 18:26:00,
2013-03-01 13:31:00,36.5,29.0,29.76,NNE,12,10.4,10.4,74,0.00,OVC,,0.01,489.0,WeatherDisplay:10.37,2013-03-01 18:31:00,
2013-03-01 13:36:00,36.2,28.7,29.76,NNE,26,10.4,10.4,74,0.00,OVC,,0.01,327.0,WeatherDisplay:10.37,2013-03-01 18:36:00,
2013-03-01 13:41:00,36.0,28.8,29.76,NNW,344,9.2,9.2,75,0.00,OVC,,0.01,297.0,WeatherDisplay:10.37,2013-03-01 18:41:00,
2013-03-01 13:46:00,35.8,29.3,29.76,NNE,14,8.0,8.0,77,0.00,OVC,,0.01,272.0,WeatherDisplay:10.37,2013-03-01 18:46:00,
2013-03-01 13:51:00,35.6,28.8,29.76,North,5,11.5,11.5,76,0.00,OVC,,0.01,288.0,WeatherDisplay:10.37,2013-03-01 18:51:00,
2013-03-01 13:56:00,35.5,28.7,29.76,North,360,9.2,9.2,76,0.00,OVC,,0.01,264.0,WeatherDisplay:10.37,2013-03-01 18:56:00,
2013-03-01 14:01:00,35.5,29.0,29.76,North,9,9.0,9.0,77,0.00,OVC,,0.01,239.0,WeatherDisplay:10.37,2013-03-01 19:01:00,
2013-03-01 14:06:00,35.3,28.5,29.76,North,355,9.2,9.2,76,0.00,OVC,,0.01,229.0,WeatherDisplay:10.37,2013-03-01 19:06:00,
2013-03-01 14:11:00,35.1,28.6,29.76,North,5,10.4,10.4,77,0.00,OVC,,0.01,237.0,WeatherDisplay:10.37,2013-03-01 19:11:00,
2013-03-01 14:16:00,35.0,29.1,29.76,North,5,10.0,10.0,79,0.00,-SN,,0.01,260.0,WeatherDisplay:10.37,2013-03-01 19:16:00,
2013-03-01 14:21:00,35.0,28.8,29.76,NNW,347,6.9,6.9,78,0.00,-SN,,0.01,225.0,WeatherDisplay:10.37,2013-03-01 19:21:00,
2013-03-01 14:26:00,35.0,29.1,29.77,NNW,345,8.1,8.1,79,0.00,-SN,,0.01,272.0,WeatherDisplay:10.37,2013-03-01 19:26:00,
2013-03-01 14:31:00,34.9,28.7,29.77,North,5,12.7,12.7,78,0.00,-SN,,0.01,258.0,WeatherDisplay:10.37,2013-03-01 19:31:00,
2013-03-01 14:36:00,34.7,28.9,29.77,NNW,335,9.2,9.2,79,0.00,-SN,,0.01,229.0,WeatherDisplay:10.37,2013-03-01 19:36:00,
2013-03-01 14:41:00,34.6,29.1,29.77,North,349,8.0,8.0,80,0.00,-SN,,0.01,193.0,WeatherDisplay:10.37,2013-03-01 19:41:00,
2013-03-01 14:46:00,34.6,29.1,29.77,North,10,6.0,6.0,80,0.00,-SN,,0.01,179.0,WeatherDisplay:10.37,2013-03-01 19:46:00,
2013-03-01 14:51:00,34.5,29.0,29.77,NE,43,8.1,8.1,80,0.00,-SN,,0.01,153.0,WeatherDisplay:10.37,2013-03-01 19:51:00,
2013-03-01 14:56:00,34.3,28.8,29.77,NNW,344,11.5,11.5,80,0.00,-SN,,0.01,163.0,WeatherDisplay:10.37,2013-03-01 19:56:00,
2013-03-01 15:01:00,34.1,28.6,29.77,NNE,12,12.7,12.7,80,0.00,-SN,,0.01,160.0,WeatherDisplay:10.37,2013-03-01 20:01:00,
2013-03-01 15:06:00,34.0,29.1,29.77,North,355,5.8,5.8,82,0.00,-SN,,0.01,144.0,WeatherDisplay:10.37,2013-03-01 20:06:00,
2013-03-01 15:11:00,34.0,29.1,29.77,NNW,346,7.0,7.0,82,0.00,-SN,,0.01,141.0,WeatherDisplay:10.37,2013-03-01 20:11:00,
2013-03-01 15:16:00,33.8,28.6,29.77,North,5,8.1,8.1,81,0.00,-SN,,0.01,151.0,WeatherDisplay:10.37,2013-03-01 20:16:00,
2013-03-01 15:21:00,33.7,28.8,29.77,North,355,11.5,11.5,82,0.00,-SN,,0.01,146.0,WeatherDisplay:10.37,2013-03-01 20:21:00,
2013-03-01 15:26:00,33.7,28.8,29.77,NNW,334,5.0,5.0,82,0.00,-SN,,0.01,153.0,WeatherDisplay:10.37,2013-03-01 20:26:00,
2013-03-01 15:31:00,33.6,29.0,29.77,NW,321,8.1,8.1,83,0.00,-SN,,0.01,153.0,WeatherDisplay:10.37,2013-03-01 20:31:00,
2013-03-01 15:36:00,33.5,28.9,29.78,NNW,331,6.9,6.9,83,0.00,-SN,,0.01,155.0,WeatherDisplay:10.37,2013-03-01 20:36:00,
2013-03-01 15:41:00,33.6,29.0,29.78,NNW,343,10.0,10.0,83,0.00,-SN,,0.01,167.0,WeatherDisplay:10.37,2013-03-01 20:41:00,
2013-03-01 15:46:00,33.6,29.3,29.78,North,355,8.1,8.1,84,0.00,-SN,,0.01,156.0,WeatherDisplay:10.37,2013-03-01 20:46:00,
2013-03-01 15:51:00,33.6,29.0,29.78,North,5,5.8,5.8,83,0.00,-SN,,0.01,146.0,WeatherDisplay:10.37,2013-03-01 20:51:00,
2013-03-01 15:56:00,33.6,29.3,29.78,North,349,3.5,3.5,84,0.00,-SN,,0.01,139.0,WeatherDisplay:10.37,2013-03-01 20:56:00,
2013-03-01 16:01:00,33.7,29.4,29.78,NNE,26,4.6,4.6,84,0.00,-SN,,0.01,118.0,WeatherDisplay:10.37,2013-03-01 21:01:00,
2013-03-01 16:06:00,33.7,29.4,29.78,North,360,3.5,3.5,84,0.00,-SN,,0.01,104.0,WeatherDisplay:10.37,2013-03-01 21:06:00,
2013-03-01 16:11:00,33.7,29.1,29.78,North,5,4.6,4.6,83,0.00,-SN,,0.01,95.0,WeatherDisplay:10.37,2013-03-01 21:11:00,
2013-03-01 16:16:00,33.7,29.4,29.78,NNW,342,4.6,4.6,84,0.00,-SN,,0.01,88.0,WeatherDisplay:10.37,2013-03-01 21:16:00,
2013-03-01 16:21:00,33.5,28.9,29.78,North,9,4.6,4.6,83,0.00,-SN,,0.01,84.0,WeatherDisplay:10.37,2013-03-01 21:21:00,
2013-03-01 16:26:00,33.5,29.2,29.79,NNW,333,4.6,4.6,84,0.00,-SN,,0.01,81.0,WeatherDisplay:10.37,2013-03-01 21:26:00,
2013-03-01 16:31:00,33.4,28.8,29.79,NNW,348,8.1,8.1,83,0.00,-SN,,0.01,72.0,WeatherDisplay:10.37,2013-03-01 21:31:00,
2013-03-01 16:36:00,33.3,28.7,29.79,NNW,346,4.6,4.6,83,0.00,-SN,,0.01,67.0,WeatherDisplay:10.37,2013-03-01 21:36:00,
2013-03-01 16:41:00,33.3,29.0,29.79,NNW,329,4.0,4.0,84,0.00,-SN,,0.01,63.0,WeatherDisplay:10.37,2013-03-01 21:41:00,
2013-03-01 16:47:00,33.3,28.7,29.79,NNW,337,5.8,5.8,83,0.00,OVC,,0.01,60.0,WeatherDisplay:10.37,2013-03-01 21:47:00,
2013-03-01 16:52:00,33.3,28.7,29.79,NNW,348,6.0,6.0,83,0.00,OVC,,0.01,56.0,WeatherDisplay:10.37,2013-03-01 21:52:00,
2013-03-01 16:57:00,33.3,28.7,29.79,NNW,346,5.8,5.8,83,0.00,OVC,,0.01,51.0,WeatherDisplay:10.37,2013-03-01 21:57:00,
2013-03-01 17:02:00,33.2,28.3,29.79,NNW,338,9.2,9.2,82,0.00,-SN,,0.01,44.0,WeatherDisplay:10.37,2013-03-01 22:02:00,
2013-03-01 17:07:00,33.1,27.9,29.79,North,355,6.9,6.9,81,0.00,-SN,,0.01,35.0,WeatherDisplay:10.37,2013-03-01 22:07:00,
2013-03-01 17:12:00,33.0,27.8,29.79,North,10,6.9,6.9,81,0.00,-SN,,0.01,32.0,WeatherDisplay:10.37,2013-03-01 22:12:00,
2013-03-01 17:17:00,32.8,27.9,29.79,North,355,3.5,3.5,82,0.00,-SN,,0.01,28.0,WeatherDisplay:10.37,2013-03-01 22:17:00,
2013-03-01 17:22:00,32.7,28.1,29.79,NNW,346,3.5,3.5,83,0.00,-SN,,0.01,21.0,WeatherDisplay:10.37,2013-03-01 22:22:00,
2013-03-01 17:27:00,32.7,28.1,29.79,North,355,5.8,5.8,83,0.00,-SN,,0.01,14.0,WeatherDisplay:10.37,2013-03-01 22:27:00,
2013-03-01 17:32:00,32.6,28.0,29.80,North,350,9.2,9.2,83,0.00,-SN,,0.01,11.0,WeatherDisplay:10.37,2013-03-01 22:32:00,
2013-03-01 17:37:00,32.5,27.9,29.80,North,355,4.6,4.6,83,0.00,-SN,,0.01,7.0,WeatherDisplay:10.37,2013-03-01 22:37:00,
2013-03-01 17:42:00,32.5,27.9,29.80,North,10,4.6,4.6,83,0.00,-SN,,0.01,5.0,WeatherDisplay:10.37,2013-03-01 22:42:00,
2013-03-01 17:47:00,32.4,27.8,29.80,North,5,6.9,6.9,83,0.00,-SN,,0.01,0.0,WeatherDisplay:10.37,2013-03-01 22:47:00,
2013-03-01 17:52:00,32.4,27.8,29.80,North,360,5.8,5.8,83,0.00,-SN,,0.01,0.0,WeatherDisplay:10.37,2013-03-01 22:52:00,
2013-03-01 17:57:00,32.4,27.8,29.81,NNW,332,4.0,4.0,83,0.00,-SN,,0.01,0.0,WeatherDisplay:10.37,2013-03-01 22:57:00,
2013-03-01 18:02:00,32.3,28.0,29.81,NE,44,6.9,6.9,84,0.00,-SN,,0.01,0.0,WeatherDisplay:10.37,2013-03-01 23:02:00,
2013-03-01 18:07:00,32.3,28.0,29.81,NNE,19,4.6,4.6,84,0.00,-SN,,0.01,0.0,WeatherDisplay:10.37,2013-03-01 23:07:00,
2013-03-01 18:12:00,32.1,27.8,29.81,North,351,3.5,3.5,84,0.00,-SN,,0.01,0.0,WeatherDisplay:10.37,2013-03-01 23:12:00,
2013-03-01 18:17:00,32.1,28.1,29.81,NNE,16,3.5,3.5,85,0.00,-SN,,0.01,0.0,WeatherDisplay:10.37,2013-03-01 23:17:00,
2013-03-01 18:22:00,32.0,28.0,29.82,NE,36,3.5,3.5,85,0.00,-SN,,0.01,0.0,WeatherDisplay:10.37,2013-03-01 23:22:00,
2013-03-01 18:27:00,32.0,28.3,29.81,NE,36,2.0,2.0,86,0.00,-SN,,0.01,0.0,WeatherDisplay:10.37,2013-03-01 23:27:00,
2013-03-01 18:32:00,31.9,28.2,29.82,NNE,13,3.5,3.5,86,0.00,-SN,,0.01,0.0,WeatherDisplay:10.37,2013-03-01 23:32:00,
2013-03-01 18:37:00,31.9,28.2,29.82,North,11,4.0,4.0,86,0.00,-SN,,0.01,0.0,WeatherDisplay:10.37,2013-03-01 23:37:00,
2013-03-01 18:42:00,31.9,28.2,29.82,North,360,2.3,2.3,86,0.00,-SN,,0.01,0.0,WeatherDisplay:10.37,2013-03-01 23:42:00,
2013-03-01 18:47:00,31.9,28.2,29.82,North,360,3.5,3.5,86,0.00,-SN,,0.01,0.0,WeatherDisplay:10.37,2013-03-01 23:47:00,
2013-03-01 18:52:00,31.8,28.4,29.82,North,360,0.0,0.0,87,0.00,-SN,,0.01,0.0,WeatherDisplay:10.37,2013-03-01 23:52:00,
2013-03-01 18:57:00,31.8,28.4,29.82,North,360,1.0,1.0,87,0.00,-SN,,0.01,0.0,WeatherDisplay:10.37,2013-03-01 23:57:00,
2013-03-01 19:02:00,31.8,28.4,29.81,North,360,2.3,2.3,87,0.00,-SN,,0.01,0.0,WeatherDisplay:10.37,2013-03-02 00:02:00,
2013-03-01 19:07:00,31.8,28.7,29.81,North,360,2.3,2.3,88,0.00,-SN,,0.01,0.0,WeatherDisplay:10.37,2013-03-02 00:07:00,
2013-03-01 19:12:00,31.7,28.6,29.82,North,360,2.3,2.3,88,0.00,-SN,,0.01,0.0,WeatherDisplay:10.37,2013-03-02 00:12:00,
2013-03-01 19:17:00,31.7,28.6,29.82,North,360,0.0,0.0,88,0.00,-SN,,0.01,0.0,WeatherDisplay:10.37,2013-03-02 00:17:00,
2013-03-01 19:22:00,31.7,28.6,29.82,North,360,0.0,0.0,88,0.00,-SN,,0.01,0.0,WeatherDisplay:10.37,2013-03-02 00:22:00,
2013-03-01 19:27:00,31.6,28.5,29.81,North,360,0.0,0.0,88,0.00,-SN,,0.01,0.0,WeatherDisplay:10.37,2013-03-02 00:27:00,
2013-03-01 19:32:00,31.6,28.5,29.82,North,360,0.0,0.0,88,0.00,-SN,,0.01,0.0,WeatherDisplay:10.37,2013-03-02 00:32:00,
2013-03-01 19:37:00,31.6,28.7,29.82,North,360,1.2,1.2,89,0.00,-SN,,0.01,0.0,WeatherDisplay:10.37,2013-03-02 00:37:00,
2013-03-01 19:42:00,31.6,28.7,29.82,North,360,2.3,2.3,89,0.00,-SN,,0.01,0.0,WeatherDisplay:10.37,2013-03-02 00:42:00,
2013-03-01 19:47:00,31.5,28.6,29.82,NNW,329,3.5,3.5,89,0.00,-SN,,0.01,0.0,WeatherDisplay:10.37,2013-03-02 00:47:00,
2013-03-01 19:52:00,31.5,28.6,29.82,NW,322,3.5,3.5,89,0.00,-SN,,0.01,0.0,WeatherDisplay:10.37,2013-03-02 00:52:00,
2013-03-01 19:57:00,31.4,28.5,29.82,NW,322,1.0,1.0,89,0.00,-SN,,0.01,0.0,WeatherDisplay:10.37,2013-03-02 00:57:00,
2013-03-01 20:02:00,31.4,28.8,29.82,NW,322,3.5,3.5,90,0.00,-SN,,0.01,0.0,WeatherDisplay:10.37,2013-03-02 01:02:00,
2013-03-01 20:07:00,31.4,28.8,29.81,NW,322,3.5,3.5,90,0.00,-SN,,0.01,0.0,WeatherDisplay:10.37,2013-03-02 01:07:00,
2013-03-01 20:12:00,31.3,28.7,29.81,NW,322,3.5,3.5,90,0.00,-SN,,0.01,0.0,WeatherDisplay:10.37,2013-03-02 01:12:00,
2013-03-01 20:17:00,31.3,28.7,29.81,NW,322,1.2,1.2,90,0.00,-SN,,0.01,0.0,WeatherDisplay:10.37,2013-03-02 01:17:00,
2013-03-01 20:22:00,31.2,28.6,29.81,NW,322,0.0,0.0,90,0.00,-SN,,0.01,0.0,WeatherDisplay:10.37,2013-03-02 01:22:00,
2013-03-01 20:27:00,31.2,28.6,29.81,NW,322,2.3,2.3,90,0.00,-SN,,0.01,0.0,WeatherDisplay:10.37,2013-03-02 01:27:00,
2013-03-01 20:32:00,31.2,28.6,29.81,NW,322,2.3,2.3,90,0.00,-SN,,0.01,0.0,WeatherDisplay:10.37,2013-03-02 01:32:00,
2013-03-01 20:37:00,31.1,28.5,29.81,NW,322,0.0,0.0,90,0.00,-SN,,0.01,0.0,WeatherDisplay:10.37,2013-03-02 01:37:00,
2013-03-01 20:42:00,31.1,28.8,29.81,NW,322,1.2,1.2,91,0.00,-SN,,0.01,0.0,WeatherDisplay:10.37,2013-03-02 01:42:00,
2013-03-01 20:47:00,31.1,28.8,29.81,NW,322,2.3,2.3,91,0.00,-SN,,0.01,0.0,WeatherDisplay:10.37,2013-03-02 01:47:00,
2013-03-01 20:52:00,31.1,28.8,29.81,NW,321,2.3,2.3,91,0.00,-SN,,0.01,0.0,WeatherDisplay:10.37,2013-03-02 01:52:00,
2013-03-01 20:57:00,31.0,28.7,29.82,WNW,298,2.3,2.3,91,0.00,-SN,,0.01,0.0,WeatherDisplay:10.37,2013-03-02 01:57:00,
2013-03-01 21:02:00,30.9,28.6,29.82,WNW,297,3.5,3.5,91,0.00,-SN,,0.01,0.0,WeatherDisplay:10.37,2013-03-02 02:02:00,
2013-03-01 21:07:00,30.8,28.8,29.81,WNW,296,3.5,3.5,92,0.00,-SN,,0.01,0.0,WeatherDisplay:10.37,2013-03-02 02:07:00,
2013-03-01 21:13:00,30.8,28.8,29.81,WNW,300,3.5,3.5,92,0.00,-SN,,0.01,0.0,WeatherDisplay:10.37,2013-03-02 02:13:00,
2013-03-01 21:18:00,30.7,28.7,29.81,WNW,299,4.0,4.0,92,0.00,-SN,,0.01,0.0,WeatherDisplay:10.37,2013-03-02 02:18:00,
2013-03-01 21:23:00,30.7,28.7,29.82,WNW,294,5.0,5.0,92,0.00,-SN,,0.01,0.0,WeatherDisplay:10.37,2013-03-02 02:23:00,
2013-03-01 21:28:00,30.6,28.6,29.81,WNW,286,3.5,3.5,92,0.00,-SN,,0.01,0.0,WeatherDisplay:10.37,2013-03-02 02:28:00,
2013-03-01 21:33:00,30.6,28.8,29.81,West,271,3.5,3.5,93,0.00,-SN,,0.01,0.0,WeatherDisplay:10.37,2013-03-02 02:33:00,
2013-03-01 21:38:00,30.5,28.5,29.81,West,278,4.0,4.0,92,0.00,-SN,,0.01,0.0,WeatherDisplay:10.37,2013-03-02 02:38:00,
2013-03-01 21:43:00,30.5,28.7,29.81,WNW,284,4.6,4.6,93,0.00,-SN,,0.01,0.0,WeatherDisplay:10.37,2013-03-02 02:43:00,
2013-03-01 21:48:00,30.5,28.7,29.81,West,279,3.5,3.5,93,0.00,-SN,,0.01,0.0,WeatherDisplay:10.37,2013-03-02 02:48:00,
2013-03-01 21:53:00,30.5,28.7,29.81,West,279,4.6,4.6,93,0.00,-SN,,0.01,0.0,WeatherDisplay:10.37,2013-03-02 02:53:00,
2013-03-01 21:58:00,30.5,28.7,29.81,West,279,3.5,3.5,93,0.00,-SN,,0.01,0.0,WeatherDisplay:10.37,2013-03-02 02:58:00,
2013-03-01 22:03:00,30.5,28.7,29.81,West,281,5.0,5.0,93,0.00,-SN,,0.01,0.0,WeatherDisplay:10.37,2013-03-02 03:03:00,
2013-03-01 22:08:00,30.5,28.7,29.81,West,281,3.5,3.5,93,0.00,-SN,,0.01,0.0,WeatherDisplay:10.37,2013-03-02 03:08:00,
2013-03-01 22:13:00,30.5,28.7,29.81,West,276,2.3,2.3,93,0.00,-SN,,0.01,0.0,WeatherDisplay:10.37,2013-03-02 03:13:00,
2013-03-01 22:18:00,30.5,29.0,29.81,West,277,1.2,1.2,94,0.00,-SN,,0.01,0.0,WeatherDisplay:10.37,2013-03-02 03:18:00,
2013-03-01 22:23:00,30.5,29.0,29.81,West,277,3.5,3.5,94,0.01,-SN,,0.02,0.0,WeatherDisplay:10.37,2013-03-02 03:23:00,
2013-03-01 22:28:00,30.5,28.7,29.81,West,277,2.3,2.3,93,0.01,-SN,,0.02,0.0,WeatherDisplay:10.37,2013-03-02 03:28:00,
2013-03-01 22:33:00,30.5,28.7,29.81,West,277,0.0,0.0,93,0.01,-SN,,0.02,0.0,WeatherDisplay:10.37,2013-03-02 03:33:00,
2013-03-01 22:38:00,30.5,29.0,29.81,West,277,1.2,1.2,94,0.02,-SN,,0.02,0.0,WeatherDisplay:10.37,2013-03-02 03:38:00,
2013-03-01 22:43:00,30.5,29.0,29.81,West,277,0.0,0.7,94,0.02,-SN,,0.02,0.0,WeatherDisplay:10.37,2013-03-02 03:43:00,
2013-03-01 22:48:00,30.5,29.0,29.81,West,277,2.3,2.3,94,0.02,-SN,,0.03,0.0,WeatherDisplay:10.37,2013-03-02 03:48:00,
2013-03-01 22:53:00,30.5,29.0,29.81,West,277,2.3,2.3,94,0.02,-SN,,0.03,0.0,WeatherDisplay:10.37,2013-03-02 03:53:00,
2013-03-01 22:58:00,30.5,29.0,29.81,West,277,3.5,3.5,94,0.03,-SN,,0.04,0.0,WeatherDisplay:10.37,2013-03-02 03:58:00,
2013-03-01 23:03:00,30.5,29.0,29.81,West,277,1.2,1.2,94,0.03,-SN,,0.04,0.0,WeatherDisplay:10.37,2013-03-02 04:03:00,
2013-03-01 23:08:00,30.4,28.9,29.81,West,277,2.3,2.3,94,0.03,-SN,,0.04,0.0,WeatherDisplay:10.37,2013-03-02 04:08:00,
2013-03-01 23:13:00,30.4,28.9,29.81,West,277,1.0,1.0,94,0.03,-SN,,0.04,0.0,WeatherDisplay:10.37,2013-03-02 04:13:00,
2013-03-01 23:18:00,30.3,28.8,29.81,West,277,3.5,3.5,94,0.03,-SN,,0.04,0.0,WeatherDisplay:10.37,2013-03-02 04:18:00,
2013-03-01 23:23:00,30.3,28.8,29.80,West,277,1.2,1.2,94,0.02,-SN,,0.04,0.0,WeatherDisplay:10.37,2013-03-02 04:23:00,
2013-03-01 23:28:00,30.3,28.8,29.80,West,281,1.2,1.2,94,0.02,-SN,,0.04,0.0,WeatherDisplay:10.37,2013-03-02 04:28:00,
2013-03-01 23:33:00,30.3,28.8,29.80,West,281,0.0,0.0,94,0.02,-SN,,0.04,0.0,WeatherDisplay:10.37,2013-03-02 04:33:00,
2013-03-01 23:38:00,30.4,28.9,29.80,WNW,282,3.5,3.5,94,0.02,-SN,,0.04,0.0,WeatherDisplay:10.37,2013-03-02 04:38:00,
2013-03-01 23:43:00,30.4,28.9,29.80,WNW,285,3.5,3.5,94,0.02,-SN,,0.04,0.0,WeatherDisplay:10.37,2013-03-02 04:43:00,
2013-03-01 23:48:00,30.4,28.9,29.80,WNW,296,2.3,2.3,94,0.01,-SN,,0.04,0.0,WeatherDisplay:10.37,2013-03-02 04:48:00,
2013-03-01 23:53:00,30.4,28.9,29.80,WNW,296,2.3,2.3,94,0.01,-SN,,0.04,0.0,WeatherDisplay:10.37,2013-03-02 04:53:00,
2013-03-01 23:58:00,30.4,28.9,29.80,WNW,296,1.2,1.2,94,0.00,-SN,,0.04,0.0,WeatherDisplay:10.37,2013-03-02 04:58:00,